Weather History for KONO - August, 2013

Change the Weather History Date:

Sunday, August 4, 2013

  Actual Average Record
Temperature  
Mean Temperature 77 °F 77 °F  
Max Temperature 95 °F 95 °F 113 °F (1961)
Min Temperature 58 °F 58 °F 46 °F (1980)
Degree Days  
Heating Degree Days 0 0  
Month to date heating degree days 0 0  
Since 1 June heating degree days 39 57  
Since 1 July heating degree days 0 5  
Cooling Degree Days 12 12  
Month to date cooling degree days 35 48  
Year to date cooling degree days 791 571  
Since 1 June cooling degree days 744 535  
Growing Degree Days 27 (Base 50)    
Moisture  
Dew Point 42 °F    
Average Humidity 33    
Maximum Humidity 56    
Minimum Humidity 9    
Precipitation  
Precipitation 0.00 in 0.01 in 0.19 in (1962)
Month to date precipitation T 0.02  
Year to date precipitation 2.61 6.08  
Sea Level Pressure  
Sea Level Pressure 29.93 in    
Wind  
Wind Speed 2 mph (NNW)    
Max Wind Speed 8 mph    
Max Gust Speed 12 mph    
Visibility 10 miles    
Events      
T = Trace of Precipitation, MM = Missing Value Source: NWS Daily Summary

Daily Weather History Graph

Daily Weather History Graph

Search for Another Location

Airport or City:

Trip Planner

Search our weather history database for the weather conditions in past years. The results will help you decide how hot, cold, wet, or windy it might be!

Date:

Astronomy

Aug. 04, 2013 Rise Set
Actual Time 6:39 AM MDT 9:07 PM MDT
Civil Twilight 6:07 AM MDT 9:40 PM MDT
Nautical Twilight 5:26 AM MDT 10:20 PM MDT
Astronomical Twilight 4:40 AM MDT 11:06 PM MDT
Moon 4:44 AM MDT (8/4) 7:33 PM MDT (8/4)
Length of Visible Light 15h 32m
Length of Day
14h 27m
Waning Crescent, 4% of the Moon is Illuminated
Aug 4
Waning Crescent
Aug 6
New
Aug 14
First Quarter
Aug 20
Full
Aug 28
Last Quarter

Hourly Weather History & Observations

Time (MDT) Temp. Dew Point Humidity Pressure Visibility Wind Dir Wind Speed Gust Speed Precip Events Conditions
12:53 AM 68.0 °F 44.1 °F 42% 29.95 in 10.0 mi NW 4.6 mph - N/A   Clear
1:53 AM 66.9 °F 44.1 °F 44% 29.96 in 10.0 mi NNW 4.6 mph - N/A   Clear
2:53 AM 62.1 °F 46.9 °F 58% 29.96 in 10.0 mi Calm Calm - N/A   Clear
3:53 AM 64.0 °F 46.0 °F 52% 29.97 in 10.0 mi WNW 3.5 mph - N/A   Clear
4:53 AM 62.1 °F 44.1 °F 52% 29.97 in 10.0 mi WNW 6.9 mph - N/A   Clear
5:53 AM 61.0 °F 43.0 °F 52% 29.98 in 10.0 mi Calm Calm - N/A   Clear
6:53 AM 59.0 °F 43.0 °F 55% 29.99 in 10.0 mi NW 6.9 mph - N/A   Clear
7:53 AM 66.9 °F 44.1 °F 44% 30.00 in 10.0 mi Calm Calm - N/A   Clear
8:53 AM 68.0 °F 48.0 °F 49% 30.00 in 10.0 mi WSW 5.8 mph - N/A   Clear
9:53 AM 73.0 °F 46.9 °F 39% 30.01 in 10.0 mi Calm Calm - N/A   Clear
10:53 AM 77.0 °F 46.0 °F 33% 30.00 in 10.0 mi Variable 3.5 mph - N/A   Clear
11:53 AM 82.9 °F 46.9 °F 28% 29.97 in 10.0 mi Calm Calm - N/A   Clear
12:53 PM 87.1 °F 42.1 °F 21% 29.96 in 10.0 mi Calm Calm - N/A   Clear
1:53 PM 90.0 °F 43.0 °F 19% 29.94 in 10.0 mi ESE 3.5 mph - N/A   Clear
2:53 PM 93.0 °F 27.0 °F 9% 29.92 in 10.0 mi NNE 5.8 mph - N/A   Clear
3:53 PM 93.0 °F 33.1 °F 12% 29.90 in 10.0 mi Variable 3.5 mph - N/A   Clear
4:53 PM 91.9 °F 34.0 °F 13% 29.88 in 10.0 mi Variable 3.5 mph - N/A   Clear
5:53 PM 93.9 °F 42.1 °F 17% 29.86 in 10.0 mi East 3.5 mph - N/A   Clear
6:53 PM 95.0 °F 30.9 °F 10% 29.84 in 10.0 mi Calm Calm - N/A   Clear
7:53 PM 93.0 °F 32.0 °F 12% 29.81 in 10.0 mi NNE 4.6 mph - N/A   Clear
8:53 PM 84.9 °F 41.0 °F 21% 29.81 in 10.0 mi Calm Calm - N/A   Clear
9:53 PM 78.1 °F 46.9 °F 33% 29.83 in 10.0 mi Calm Calm - N/A   Clear
10:53 PM 70.0 °F 51.1 °F 51% 29.85 in 10.0 mi Calm Calm - N/A   Clear
11:53 PM 66.0 °F 50.0 °F 56% 29.86 in 10.0 mi Calm Calm - N/A   Clear